(269096) = 2005 XR86 = 2007 HN65

Discovered at Catalina on 2007-04-22 by CSS.

Orbit

Orbit type: Main Belt

Note: WebGL enabled browser required.

epoch2024-03-31.0
epoch JD2460400.5
perihelion date2020-01-28.85084
perihelion JD2458877.35084
argument of perihelion (°)136.31419
ascending node (°)90.11697
inclination (°)8.81690
eccentricity0.1584003
perihelion distance (AU)2.2090510
Tisserand w.r.t. Jupiter3.4
ΔV w.r.t. Earth (km/sec)9.7
semimajor axis (AU)2.6248237
mean anomaly (°)353.01755
mean daily motion (°/day)0.23176820
aphelion distance (AU)3.041
period (years)4.25
P-vector [x]-0.68106372
P-vector [y]-0.70685575
P-vector [z]-0.19106849
Q-vector [x]0.71600166
Q-vector [y]-0.58827823
Q-vector [z]-0.37585948
absolute magnitude16.41
phase slope0.15
uncertainty0
referenceE2024-GD4
observations used415
oppositions13
arc length (days)6697
first opposition used2005
last opposition used2024
residual rms (arc-secs)0.77
perturbers coarse indicatorM-v
perturbers precise indicator003Ek
first observation date used2005-12-08.0
last observation date used2024-04-09.0
computer nameMPCLINUX
JD of orbit computation2456670.722104
perihelion JD uncertainty (days)1.3502E-04
argument of perihelion uncertainty (°)6.1954E-05
ascending node uncertainty (°)5.6654E-05
inclination uncertainty (°)1.1136E-05
eccentricity uncertainty 1.5224E-07
perihelion distance uncertainty (AU)4.0285E-07
Minimum Orbit Intersection Distances (in AU)
for orbit epoch: 2460400.5, reference: E2024-GD4
Mercury1.7565
Venus1.48834
Earth1.20817
Mars0.66341
Jupiter1.97365
Saturn6.07177
Uranus15.9569
Neptune26.8002

Observations

422 total observations over interval: 2005 12 08.38252 – 2022 12 23.338895
These data are available for download (format description).

Date (UT) J2000 RA J2000 Dec Magn Location Ref
2005 12 08.38252 07 01 53.93 +23 44 24.0 21.1 V 691 – Steward Observatory, Kitt Peak-Spacewatch MPS 156676
2005 12 08.40274 07 01 53.00 +23 44 28.1 20.8 V 691 – Steward Observatory, Kitt Peak-Spacewatch MPS 156676
2005 12 08.42299 07 01 52.09 +23 44 33.2 20.9 V 691 – Steward Observatory, Kitt Peak-Spacewatch MPS 156676
2005 12 24.23917 06 47 44.54 +24 48 13.4   691 – Steward Observatory, Kitt Peak-Spacewatch MPS 156676
2005 12 24.25833 06 47 43.45 +24 48 17.2   691 – Steward Observatory, Kitt Peak-Spacewatch MPS 156676
2005 12 24.27633 06 47 42.25 +24 48 22.4   691 – Steward Observatory, Kitt Peak-Spacewatch MPS 156676
2006 01 05.16607 06 35 09.87 +25 33 31.1 20.3 V 691 – Steward Observatory, Kitt Peak-Spacewatch MPS 209126
2006 01 05.18334 06 35 08.74 +25 33 34.4 20.4 V 691 – Steward Observatory, Kitt Peak-Spacewatch MPS 209126
2006 01 05.20065 06 35 07.62 +25 33 38.4 20.3 V 691 – Steward Observatory, Kitt Peak-Spacewatch MPS 209126
2007 04 22.38059 15 43 55.38 -08 24 09.0 19.1 V 703 – Catalina Sky Survey MPS 208281
2007 04 22.38935 15 43 55.09 -08 24 09.6 19.4 V 703 – Catalina Sky Survey MPS 208281
2007 04 22.39812 15 43 54.73 -08 24 07.9 19.1 V 703 – Catalina Sky Survey MPS 208281
2007 04 22.40687 15 43 54.37 -08 24 07.6 18.9 V 703 – Catalina Sky Survey MPS 208281
2007 04 25.38906 15 41 56.53 -08 21 16.9 19.5 V 691 – Steward Observatory, Kitt Peak-Spacewatch MPS 208281
2007 04 25.40672 15 41 55.75 -08 21 15.9 19.6 V 691 – Steward Observatory, Kitt Peak-Spacewatch MPS 208281
2007 04 25.42439 15 41 54.97 -08 21 15.0 19.6 V 691 – Steward Observatory, Kitt Peak-Spacewatch MPS 208281
2007 05 07.40381 15 32 12.01 -08 16 10.9 18.5 V 703 – Catalina Sky Survey MPS 209126
2007 05 07.41274 15 32 11.43 -08 16 11.5 18.4 V 703 – Catalina Sky Survey MPS 209127
2007 05 07.42164 15 32 11.04 -08 16 11.2 18.9 V 703 – Catalina Sky Survey MPS 209127
2007 05 07.59098 15 32 02.34 -08 16 12.2 18.5 R D29 – Purple Mountain Observatory, XuYi Station MPS 209127
2007 05 07.61092 15 32 01.24 -08 16 12.4 19.1 R D29 – Purple Mountain Observatory, XuYi Station MPS 209127
2007 05 07.62907 15 32 00.19 -08 16 12.5 18.8 R D29 – Purple Mountain Observatory, XuYi Station MPS 209127
2007 05 07.64482 15 31 59.28 -08 16 12.7 18.6 R D29 – Purple Mountain Observatory, XuYi Station MPS 209127
2007 05 16.38508 15 23 51.97 -08 21 38.6 18.8 V G96 – Mt. Lemmon Survey MPS 209127
2007 05 16.39234 15 23 51.54 -08 21 39.3 18.8 V G96 – Mt. Lemmon Survey MPS 209127
2007 05 16.39961 15 23 51.10 -08 21 39.7 18.9 V G96 – Mt. Lemmon Survey MPS 209127
2007 05 16.40694 15 23 50.67 -08 21 40.2 18.8 V G96 – Mt. Lemmon Survey MPS 209127
2007 05 24.27844 15 16 39.72 -08 34 55.8 18.7 V 703 – Catalina Sky Survey MPS 210184
2007 05 24.28435 15 16 39.25 -08 34 57.5 18.6 V 703 – Catalina Sky Survey MPS 210184
2007 05 24.29024 15 16 39.14 -08 34 59.3 18.4 V 703 – Catalina Sky Survey MPS 210184
2007 05 24.29616 15 16 38.74 -08 34 58.8 18.7 V 703 – Catalina Sky Survey MPS 210184
2007 06 09.25939 15 05 00.81 -09 28 22.7 19.0 V 703 – Catalina Sky Survey MPS 210728
2007 06 09.26909 15 05 00.56 -09 28 25.9 19.1 V 703 – Catalina Sky Survey MPS 210728
2007 06 09.27880 15 05 00.13 -09 28 27.8 19.9 V 703 – Catalina Sky Survey MPS 210728
2007 06 09.28853 15 04 59.84 -09 28 29.0 19.3 V 703 – Catalina Sky Survey MPS 210728
2007 06 23.15953 15 00 11.66 -10 41 48.6 19.9 V 691 – Steward Observatory, Kitt Peak-Spacewatch MPS 211388
2007 06 23.17346 15 00 11.50 -10 41 53.5 19.9 V 691 – Steward Observatory, Kitt Peak-Spacewatch MPS 211388
2007 06 23.18740 15 00 11.37 -10 41 58.7 19.9 V 691 – Steward Observatory, Kitt Peak-Spacewatch MPS 211388
2009 11 18.30094 05 31 30.18 +19 47 46.4 21.2 V 691 – Steward Observatory, Kitt Peak-Spacewatch MPS 303375
2009 11 18.32205 05 31 29.15 +19 47 47.8 20.5 V 691 – Steward Observatory, Kitt Peak-Spacewatch MPS 303375
2009 11 18.33970 05 31 28.32 +19 47 49.0 20.8 V 691 – Steward Observatory, Kitt Peak-Spacewatch MPS 303375
2009 12 11.28860 05 09 56.08 +20 14 04.4 20.1 V G96 – Mt. Lemmon Survey MPS 306645
2009 12 11.29431 05 09 55.72 +20 14 05.0 19.9 V G96 – Mt. Lemmon Survey MPS 306645
2009 12 11.30017 05 09 55.36 +20 14 05.5 20.0 V G96 – Mt. Lemmon Survey MPS 306645
2009 12 11.30595 05 09 55.00 +20 14 05.9 19.8 V G96 – Mt. Lemmon Survey MPS 306645
2010 01 12.21809 04 42 14.36 +20 56 48.7 20.8 V G96 – Mt. Lemmon Survey MPS 310250
2010 01 12.22718 04 42 14.04 +20 56 49.9 20.7 V G96 – Mt. Lemmon Survey MPS 310250
2010 01 12.23627 04 42 13.71 +20 56 50.9 20.4 V G96 – Mt. Lemmon Survey MPS 310250
2010 01 12.24534 04 42 13.53 +20 56 52.1 20.1 V G96 – Mt. Lemmon Survey MPS 310250
2011 01 08.52149 12 49 29.96 +05 33 27.9 20.9 V G96 – Mt. Lemmon Survey MPS 365688
2011 01 08.52612 12 49 30.28 +05 33 27.6 20.7 V G96 – Mt. Lemmon Survey MPS 365688
2011 01 08.53082 12 49 30.54 +05 33 27.1 20.7 V G96 – Mt. Lemmon Survey MPS 365688
2011 01 08.53553 12 49 30.86 +05 33 26.3 20.6 V G96 – Mt. Lemmon Survey MPS 365688
2011 01 16.48138 12 57 02.19 +05 25 38.9 20.6 V G96 – Mt. Lemmon Survey MPS 367094
2011 01 16.49116 12 57 02.73 +05 25 39.5 19.9 V G96 – Mt. Lemmon Survey MPS 367094
2011 01 16.49889 12 57 02.98 +05 25 39.3 19.8 V G96 – Mt. Lemmon Survey MPS 367094
2011 01 16.50656 12 57 03.49 +05 25 38.2 20.6 V G96 – Mt. Lemmon Survey MPS 367094
2011 03 01.35979 13 12 36.24 +07 47 59.4 19.6   704 – Lincoln Laboratory ETS, New Mexico MPS 372056
2011 03 01.37438 13 12 36.10 +07 48 05.0 20.3   704 – Lincoln Laboratory ETS, New Mexico MPS 372056
2011 03 01.41605 13 12 35.27 +07 48 19.6 19.6   704 – Lincoln Laboratory ETS, New Mexico MPS 372056
2011 03 11.37036 13 08 37.60 +08 54 57.2 19.6 V 703 – Catalina Sky Survey MPS 373481
2011 03 11.37869 13 08 37.35 +08 54 59.8 19.5 V 703 – Catalina Sky Survey MPS 373481
2011 03 11.38701 13 08 37.06 +08 55 04.4 19.1 V 703 – Catalina Sky Survey MPS 373481
2011 03 11.39542 13 08 36.74 +08 55 06.9 19.4 V 703 – Catalina Sky Survey MPS 373481
2011 03 24.38816 12 59 50.02 +10 20 56.9 18.6 V 703 – Catalina Sky Survey MPS 377064
2011 03 24.39336 12 59 49.66 +10 20 59.8 20.2 V 703 – Catalina Sky Survey MPS 377064
2011 03 24.39861 12 59 49.38 +10 21 01.3 19.3 V 703 – Catalina Sky Survey MPS 377064
2011 03 24.40384 12 59 49.23 +10 21 03.1 19.2 V 703 – Catalina Sky Survey MPS 377064
2011 03 31.33325 12 54 02.77 +10 59 44.7 19.2   704 – Lincoln Laboratory ETS, New Mexico MPS 396136
2011 04 05.41823 12 49 36.62 +11 22 34.6 19.0 V G96 – Mt. Lemmon Survey MPS 378546
2011 04 05.42681 12 49 36.15 +11 22 36.5 19.1 V G96 – Mt. Lemmon Survey MPS 378546
2011 04 05.43506 12 49 35.72 +11 22 38.5 19.1 V G96 – Mt. Lemmon Survey MPS 378546
2011 04 05.44330 12 49 35.29 +11 22 41.3 18.7 V G96 – Mt. Lemmon Survey MPS 378546
2011 04 13.25118 12 42 55.26 +11 46 03.9 19.2 V 703 – Catalina Sky Survey MPS 379651
2011 04 13.25733 12 42 54.97 +11 46 05.0 19.0 V 703 – Catalina Sky Survey MPS 379651
2011 04 13.26355 12 42 54.75 +11 46 04.7 19.2 V 703 – Catalina Sky Survey MPS 379651
2011 04 13.26973 12 42 54.39 +11 46 07.1 19.2 V 703 – Catalina Sky Survey MPS 379651
2011 04 22.84744 12 35 42.51 +11 52 55.2 18.9 R 106 – Crni Vrh MPS 379978
2011 04 22.86097 12 35 41.86 +11 52 54.6 18.7 R 106 – Crni Vrh MPS 379978
2011 04 22.87329 12 35 41.41 +11 52 53.7 19.2 R 106 – Crni Vrh MPS 379978
2011 04 22.88561 12 35 40.84 +11 52 53.7 19.4 R 106 – Crni Vrh MPS 379978
2011 04 26.14763 12 33 37.58 +11 49 31.5 19.6 V 703 – Catalina Sky Survey MPS 381107
2011 04 26.15559 12 33 37.22 +11 49 29.2 19.2 V 703 – Catalina Sky Survey MPS 381107
2011 04 26.16366 12 33 36.90 +11 49 29.4 19.6 V 703 – Catalina Sky Survey MPS 381107
2011 04 26.17176 12 33 36.54 +11 49 29.0 19.2 V 703 – Catalina Sky Survey MPS 381107
2011 04 30.24920 12 31 22.83 +11 41 12.9 19.7   704 – Lincoln Laboratory ETS, New Mexico MPS 382071
2011 04 30.25956 12 31 22.53 +11 41 12.4 19.4   704 – Lincoln Laboratory ETS, New Mexico MPS 382071
2011 04 30.26986 12 31 22.22 +11 41 10.4 19.4   704 – Lincoln Laboratory ETS, New Mexico MPS 382071
2011 04 30.28069 12 31 21.93 +11 41 09.5 19.4   704 – Lincoln Laboratory ETS, New Mexico MPS 382071
2013 10 27.27382 04 15 39.83 +13 52 09.3 20.8 V 691 – Steward Observatory, Kitt Peak-Spacewatch MPS 485031
